View from above orbital plane
|
View from above satellite
|
Ground track
|
The orbit data is extracted from the following two-line orbital elements,
1 00050U 60009B 21110.44703330 -.00000088 00000-0 -23743-4 0 9990
2 00050 47.2310 248.4645 0114083 160.6692 199.8474 12.20116690707705
Epoch (UTC): | 20 April 2021 10:43:43 |
Eccentricity: | 0.0114083 |
inclination: | 47.2310° |
perigee height: | 1501 km |
apogee height: | 1683 km |
right ascension of ascending node: | 248.4645° |
argument of perigee: | 160.6692° |
revolutions per day: | 12.20116690 |
mean anomaly at epoch: | 199.8474° |
orbit number at epoch: | 70770 |
The dashed part of the orbit path shows where the satellite is in the earth's shadow,
|
|